Location: Aalen
(48.8330°N, 10.1000°E)
Time: 10:54:13
(UTC+02:00)

S-56A Canister/Altair - Pass Details

Date: 03 August 2021
Orbit: 632 x 2500 km, 38.9° (Epoch: 21 September)

Event Time Altitude Azimuth Distance (km) Brightness Sun altitude
Rises 13:58:06 0° 202° (SSW) 5,024 12.2 57.9°
Reaches altitude 10° 14:01:45 10° 191° (S) 4,298 12.1 57.7°
Maximum altitude 14:11:23 28° 139° (SE) 3,570 11.6 57.2°
Drops below altitude 10° 14:22:45 10° 89° (E) 5,152 11.7 56.5°
Sets 14:27:38 0° 79° (E) 6,180 11.9 56.1°
